NOAA 17 DEB

Satellite information

Favourite Embed

Satellite Type and Status

DEBRISIN ORBIT

Key statistics

Satellite NOAA 17 DEB at a glance.

Uptime

8415

Days in orbit

Revolutions

≈ 14.6

Per day

Orbit

SSO

Sun Synchronous Orbit

Inclination

98.5

Latest

Satellite identification and parameters

Extended collection of information and parameters for NOAA 17 DEB.

Object identification

Identified? True

Debris? True

Object name: NOAA 17 DEB

International designator: 2002-032BN

Object number (NORAD): 48729

Object ID (CCSDS): 48729

Country: UNITED STATES OF AMERICA (US)

Current information (Y/N): Y

RCS size: SMALL

Orbital parameters

Period: 98.752 minutes

Inclination: 98.4609 deg

SMA: 7077.118 km

Apoapsis: 706.362 km

Periapsis: 691.605 km

RAAN: 126.0081 deg

Eccentricy: 0.0010426

Argument of periapsis: 262.6183 deg

Mean anomaly: 97.383 deg

Mean motion: 14.58203324 rev/day

Mean motion (dot): 0.00007538 rev/day2

B* drag term: 0.0016414 1/REarth

Two-line elements (TLE)

Creation date: July 6, 2025, 6:05 p.m.

Reference frame: TEME

Reference center: EARTH

Epoch: July 6, 2025, 7:13 a.m. UTC

TLE line 0: 0 NOAA 17 DEB

TLE line 1: 1 48729U 02032BN 25187.30078677 .00007538 00000-0 16414-2 0 9999

TLE line 2: 2 48729 98.4609 126.0081 0010426 262.6183 97.3830 14.58203324223613

Live tracking on map

Real-time ground track for satellite NOAA 17 DEB.

In-orbit conjunctions

A list of the most updated potential collisions computed for object NOAA 17 DEB.

Target Orbit TCA Probability of collision Miss distance Type
COSMOS 2251 DEB LEO 2024-11-14 23:44:19 0.0001096349 715.0 (m) DEBRIS
PEGASUS R/B LEO 2024-09-13 11:15:57 0.000278314 186.0 (m) ROCKET BODY

Associated space launch

NOAA M carried weather imagers and microwave and infrared sounders, as well as a SARSAT search-and-rescue package. It had an on-orbit mass of 1475 kg.

NOAA 17 DEB was lifted into orbit during the mission ‘Titan II SLV | NOAA 17’, on board a Titan II SLV space rocket.

The launch took place on June 24, 2002, 6:23 p.m. from Space Launch Complex 4W.

For more information about the launch, click the button.

Launch to space Titan II SLV | NOAA 17
Titan II SLV | NOAA 17

Agency: N/A

Status: Launch Successful

Launch date: June 24, 2002, 6:23 p.m. UTC

Rocket: Titan II SLV

Launch pad: Space Launch Complex 4W

Location: Vandenberg SFB, CA, USA

...

Latest news about this satellite

There are no fresh news available about this satellite. Check back as we update our databases every day.


Newsletter sign-up

Weekly statistics, charts and insights to help you stay on top of the space industry.